Temp
11 11 10 10 10 10 10 9 9 9 9 9 9 9 9 8 8 8 8 7 7 7 6 6 5 5 4 4 3 3 3 3 2 2 2 2 2 2 2 2 2 2 1 1 1 1 1 1 1 1 0 0 0 0 0 -0 -0 -0 -0 -1 -1 -1 -1 -1 -1 -1 -1 -1 -1
11 11 11 10 10 10 10 9 9 9 9 8 8 8 8 8 8 8 7 7 7 6 6 6 5 5 4 4 3 3 3 3 2 2 2 2 2 2 2 2 2 1 1 1 1 1 1 1 1 0 0 -0 -0 -0 -0 -0 -0 -1 -1 -1 -1 -1 -1 -1 -2 -2 -1 -1 -2
12 11 11 11 10 10 10 9 9 9 9 8 8 8 8 8 8 7 7 7 7 6 6 6 5 5 5 4 4 3 3 3 2 2 2 2 2 2 2 2 2 1 1 1 1 1 1 1 0 0 -0 -0 -0 -0 -0 -1 -1 -1 -1 -1 -1 -1 -1 -2 -2 -2 -2 -2 -2
12 11 11 11 10 10 10 9 9 9 8 8 8 8 8 7 7 7 7 7 6 6 6 6 5 5 5 4 4 3 3 2 2 2 2 2 2 2 2 2 1 1 1 1 1 1 1 0 0 0 -0 -0 -1 -1 -1 -1 -1 -1 -1 -1 -1 -1 -2 -2 -2 -2 -2 -2 -2
12 12 11 11 11 10 10 10 9 9 8 8 8 7 7 7 7 7 7 6 6 6 6 6 5 5 5 4 4 3 3 2 2 2 2 2 2 2 2 2 2 1 1 1 0 0 0 0 0 -0 -0 -0 -1 -1 -1 -1 -1 -1 -1 -1 -2 -2 -2 -2 -2 -2 -2 -2 -2
12 12 11 11 11 10 10 10 9 9 9 8 8 7 7 7 7 7 6 6 6 6 6 6 5 5 5 4 4 3 3 3 2 2 2 2 2 2 2 2 1 1 1 0 0 0 0 0 -0 -0 -0 -1 -1 -1 -1 -1 -1 -2 -2 -2 -2 -2 -2 -2 -2 -2 -2 -2 -2
12 12 11 11 10 10 10 9 9 9 8 8 8 8 7 7 7 7 6 6 6 6 6 5 5 5 5 4 4 4 3 3 2 2 2 2 2 2 2 1 1 1 1 0 0 -0 -0 -0 -0 -0 -1 -1 -1 -1 -1 -1 -2 -2 -2 -2 -2 -2 -2 -2 -2 -2 -2 -2 -2
12 12 11 11 10 10 10 9 9 9 8 8 8 8 8 7 7 7 6 6 6 6 5 5 5 5 5 4 4 4 3 3 2 2 2 2 2 1 1 1 1 1 1 0 -0 -0 -0 -0 -0 -1 -1 -1 -1 -2 -2 -2 -2 -2 -2 -2 -2 -2 -3 -3 -3 -3 -3 -3 -3
11 11 11 11 10 10 10 9 9 8 8 8 8 8 8 7 7 7 7 6 6 6 5 5 5 5 5 4 4 4 3 3 2 2 2 2 1 1 1 1 1 1 0 0 -0 -1 -1 -1 -1 -1 -1 -1 -2 -2 -2 -2 -2 -2 -2 -2 -3 -3 -3 -3 -3 -3 -3 -3 -3
11 11 11 10 10 10 9 9 9 8 8 8 8 8 8 7 7 7 7 6 6 6 5 5 5 5 5 4 4 4 3 3 2 2 2 2 1 1 1 1 1 1 0 -0 -0 -1 -1 -1 -1 -1 -1 -1 -2 -2 -2 -2 -2 -2 -2 -3 -3 -3 -3 -3 -3 -3 -3 -3 -3
11 11 10 10 10 9 9 9 8 8 8 8 8 7 7 7 7 7 7 6 6 6 5 5 5 5 4 4 4 3 3 3 2 2 2 1 1 1 1 1 1 0 0 -0 -1 -1 -1 -1 -1 -1 -1 -2 -2 -2 -2 -3 -3 -3 -3 -3 -3 -3 -3 -3 -3 -3 -3 -4 -4
11 10 10 10 9 9 9 9 8 8 8 7 7 7 7 7 7 7 7 6 6 6 5 5 5 4 4 4 4 3 3 3 2 2 2 1 1 1 1 1 1 0 0 -0 -1 -1 -1 -1 -2 -2 -2 -2 -2 -2 -2 -3 -3 -3 -3 -3 -3 -3 -3 -3 -3 -4 -4 -4 -4
11 10 10 10 9 9 9 8 8 8 7 7 7 7 7 7 6 6 6 6 6 6 5 5 5 4 4 4 3 3 3 3 2 2 1 1 1 1 1 0 0 0 -0 -0 -1 -1 -1 -2 -2 -2 -2 -2 -2 -2 -3 -3 -3 -3 -3 -3 -3 -3 -3 -3 -4 -4 -4 -4 -4
11 10 10 10 9 9 9 8 8 8 7 7 7 7 6 6 6 6 6 6 6 5 5 5 4 4 4 4 3 3 2 2 2 2 1 1 1 0 0 0 0 -0 -0 -1 -1 -1 -1 -2 -2 -2 -2 -2 -2 -3 -3 -3 -3 -3 -3 -3 -3 -3 -3 -4 -4 -4 -4 -4 -4
10 10 10 10 9 9 9 8 8 7 7 7 7 6 6 6 6 6 6 5 5 5 5 5 4 4 4 3 3 3 2 2 2 1 1 1 0 0 0 -0 -0 -0 -1 -1 -1 -1 -1 -2 -2 -2 -2 -2 -2 -3 -3 -3 -3 -3 -3 -3 -3 -4 -4 -4 -4 -4 -4 -4 -4
10 10 10 9 9 9 8 8 8 7 7 7 6 6 6 6 6 5 5 5 5 5 5 4 4 4 3 3 3 2 2 1 1 1 1 1 0 0 -0 -0 -0 -1 -1 -1 -1 -1 -2 -2 -2 -2 -2 -2 -3 -3 -3 -3 -3 -3 -3 -3 -4 -4 -4 -4 -4 -4 -4 -4 -4
10 10 10 9 9 9 8 8 8 7 7 7 6 6 6 6 5 5 5 5 5 4 4 4 4 3 3 3 2 2 2 1 1 1 0 0 0 -0 -0 -0 -1 -1 -1 -1 -1 -2 -2 -2 -2 -2 -2 -3 -3 -3 -3 -3 -3 -4 -4 -4 -4 -4 -4 -4 -4 -4 -4 -4 -4
11 10 10 9 9 9 8 8 8 7 7 7 6 6 6 5 5 5 5 4 4 4 4 4 3 3 3 2 2 2 1 1 1 0 0 0 -0 -0 -0 -1 -1 -1 -1 -1 -2 -2 -2 -2 -2 -3 -3 -3 -3 -3 -3 -3 -4 -4 -4 -4 -4 -4 -4 -4 -4 -4 -4 -4 -4
11 10 10 10 9 9 8 8 8 7 7 7 6 6 6 5 5 5 4 4 4 4 3 3 3 3 2 2 2 1 1 1 0 0 0 -0 -0 -1 -1 -1 -1 -1 -1 -2 -2 -2 -2 -2 -3 -3 -3 -3 -3 -3 -3 -4 -4 -4 -4 -4 -4 -4 -4 -4 -4 -4 -4 -4 -4
10 10 10 10 9 9 8 8 8 7 7 7 6 6 5 5 5 5 4 4 4 3 3 3 3 2 2 2 1 1 1 1 0 0 -0 -0 -0 -1 -1 -1 -1 -1 -2 -2 -2 -2 -2 -3 -3 -3 -3 -3 -3 -4 -4 -4 -4 -4 -4 -4 -4 -4 -4 -4 -4 -4 -4 -4 -4
10 10 10 9 9 9 8 8 7 7 7 6 6 6 5 5 5 4 4 4 4 3 3 3 3 2 2 1 1 1 1 0 0 -0 -0 -0 -1 -1 -1 -1 -1 -2 -2 -2 -2 -2 -3 -3 -3 -3 -3 -4 -4 -4 -4 -4 -4 -4 -5 -5 -5 -4 -4 -4 -4 -4 -4 -4 -4
10 10 9 9 9 8 8 8 7 7 7 6 6 6 5 5 5 4 4 4 3 3 3 3 2 2 2 1 1 1 0 0 -0 -0 -0 -1 -1 -1 -1 -1 -2 -2 -2 -2 -2 -3 -3 -3 -3 -3 -4 -4 -4 -4 -4 -4 -5 -5 -5 -5 -5 -4 -4 -4 -4 -4 -4 -5 -5
9 9 9 9 8 8 8 7 7 7 7 6 6 5 5 5 4 4 4 3 3 3 3 2 2 2 2 1 1 1 0 -0 -0 -0 -1 -1 -1 -1 -1 -2 -2 -2 -2 -3 -3 -3 -3 -3 -3 -4 -4 -4 -4 -4 -4 -5 -5 -5 -5 -5 -5 -4 -4 -4 -4 -4 -5 -5 -5
9 9 8 8 8 8 7 7 7 7 6 6 6 5 5 5 4 4 4 3 3 3 2 2 2 2 1 1 1 1 0 -0 -0 -1 -1 -1 -1 -1 -2 -2 -2 -2 -2 -3 -3 -3 -3 -4 -4 -4 -4 -4 -4 -4 -5 -5 -5 -5 -5 -5 -5 -5 -4 -4 -5 -5 -5 -5 -5
8 8 8 8 8 8 7 7 7 6 6 6 6 5 5 5 4 4 3 3 3 2 2 2 2 1 1 1 1 1 0 -0 -0 -1 -1 -1 -1 -2 -2 -2 -2 -2 -3 -3 -3 -3 -4 -4 -4 -4 -4 -4 -5 -5 -5 -5 -5 -5 -5 -5 -5 -5 -5 -5 -5 -5 -5 -5 -5
8 8 8 8 8 7 7 7 7 6 6 6 5 5 5 4 4 4 3 3 3 2 2 2 1 1 1 1 1 0 0 -0 -0 -1 -1 -1 -2 -2 -2 -2 -3 -3 -3 -3 -3 -3 -3 -4 -4 -4 -4 -5 -5 -5 -5 -5 -5 -5 -5 -5 -5 -5 -5 -5 -5 -5 -5 -5 -5
7 7 7 8 8 7 7 7 7 6 6 6 5 5 5 4 4 4 3 3 3 2 2 1 1 1 1 1 0 0 -0 -0 -1 -1 -1 -1 -2 -2 -2 -2 -3 -3 -3 -3 -3 -3 -3 -3 -3 -4 -4 -5 -5 -5 -5 -5 -5 -5 -5 -5 -5 -5 -5 -4 -5 -5 -5 -5 -5
7 7 7 7 7 8 7 7 7 7 6 6 5 5 5 4 4 4 3 3 2 2 2 1 1 1 0 0 0 0 -0 -0 -1 -1 -1 -2 -2 -2 -2 -3 -3 -3 -3 -3 -3 -3 -3 -3 -3 -3 -4 -5 -5 -5 -5 -5 -5 -5 -5 -5 -5 -5 -5 -4 -5 -5 -5 -5 -5
7 7 7 7 7 7 8 7 7 7 7 6 6 5 5 4 4 3 3 3 2 2 2 1 1 0 0 0 0 0 -0 -1 -1 -1 -1 -2 -2 -2 -2 -3 -3 -3 -3 -3 -3 -3 -3 -3 -3 -3 -3 -4 -5 -5 -5 -5 -5 -5 -5 -5 -5 -5 -5 -5 -5 -5 -5 -5 -5
6 6 7 7 7 7 7 7 7 7 7 6 6 5 5 4 4 3 3 3 2 2 2 1 1 1 0 0 0 -0 -0 -1 -1 -1 -2 -2 -2 -2 -3 -3 -3 -3 -3 -3 -3 -3 -3 -3 -2 -2 -3 -3 -4 -5 -5 -5 -5 -5 -5 -5 -5 -5 -5 -5 -5 -5 -4 -4 -4
6 6 7 7 7 7 7 7 7 7 7 6 6 5 5 4 4 4 3 3 2 2 2 2 1 1 1 0 0 -0 -0 -0 -1 -1 -2 -2 -2 -2 -3 -3 -3 -3 -3 -3 -3 -3 -3 -3 -2 -2 -2 -2 -3 -5 -5 -5 -5 -5 -5 -5 -5 -5 -5 -5 -5 -5 -5 -4 -4
6 6 6 7 7 7 7 7 7 7 7 6 6 5 5 4 4 4 3 3 3 2 2 2 1 1 1 1 0 0 -0 -0 -1 -1 -2 -2 -2 -2 -3 -3 -3 -3 -3 -3 -3 -3 -3 -2 -2 -2 -2 -2 -3 -4 -5 -5 -5 -5 -5 -5 -5 -5 -4 -5 -4 -5 -5 -4 -4
6 6 6 6 7 7 7 7 7 7 6 6 6 5 5 5 4 4 3 3 3 3 2 2 2 1 1 1 1 0 0 -0 -1 -1 -1 -2 -2 -2 -3 -3 -3 -3 -4 -3 -3 -3 -3 -2 -2 -2 -2 -2 -2 -3 -4 -5 -5 -5 -5 -5 -5 -4 -4 -4 -4 -5 -5 -5 -4
6 6 6 7 7 7 7 7 7 6 6 6 6 5 5 5 4 4 3 3 3 3 2 2 2 2 1 1 1 0 0 -0 -0 -1 -1 -2 -2 -2 -3 -3 -3 -3 -3 -3 -3 -3 -3 -2 -2 -2 -2 -2 -2 -2 -3 -4 -5 -5 -5 -5 -4 -4 -4 -4 -5 -5 -5 -5 -4
6 6 7 7 7 7 7 7 7 7 6 6 6 5 5 5 4 4 4 3 3 3 3 2 2 2 2 1 1 1 0 -0 -0 -1 -1 -2 -2 -2 -3 -3 -3 -3 -3 -3 -3 -3 -3 -3 -2 -2 -2 -2 -2 -2 -2 -3 -4 -4 -4 -4 -4 -4 -4 -4 -4 -5 -5 -4 -4
7 7 7 7 7 7 7 7 7 7 7 6 6 6 5 5 4 4 4 3 3 3 3 3 2 2 2 2 1 1 0 -0 -0 -1 -1 -2 -2 -2 -3 -3 -3 -3 -3 -3 -3 -3 -3 -3 -2 -2 -2 -2 -2 -2 -2 -3 -4 -4 -4 -4 -4 -4 -4 -4 -4 -4 -4 -4 -4
7 7 7 7 7 7 7 7 7 7 7 6 6 6 6 5 5 4 4 4 3 3 3 3 2 2 2 2 1 1 0 -0 -0 -1 -1 -2 -2 -2 -3 -3 -3 -3 -3 -3 -3 -3 -3 -3 -2 -2 -2 -2 -2 -2 -1 -2 -3 -4 -4 -4 -4 -4 -4 -4 -4 -4 -4 -4 -4
7 7 7 7 7 7 7 7 7 7 7 6 6 6 6 5 5 5 4 4 4 3 3 3 3 2 2 2 1 1 0 0 -0 -1 -1 -2 -2 -2 -3 -3 -3 -3 -3 -3 -3 -3 -3 -3 -2 -2 -2 -2 -2 -2 -1 -1 -2 -3 -4 -4 -4 -3 -3 -4 -4 -4 -4 -4 -4
7 7 7 7 7 7 7 7 7 7 6 6 6 6 6 5 5 5 5 4 4 4 3 3 3 3 2 2 1 1 1 0 -0 -1 -1 -2 -2 -2 -3 -3 -3 -3 -4 -4 -3 -3 -3 -3 -2 -2 -2 -2 -2 -2 -1 -1 -2 -2 -3 -3 -3 -3 -3 -3 -3 -3 -3 -3 -3
7 7 7 7 7 6 6 6 6 6 6 6 6 6 6 5 5 5 5 5 4 4 3 3 3 3 2 2 2 1 1 0 -0 -1 -1 -2 -2 -2 -2 -3 -3 -3 -4 -4 -3 -3 -3 -3 -2 -2 -2 -2 -2 -2 -2 -1 -1 -2 -2 -2 -2 -3 -3 -3 -3 -3 -3 -3 -3
7 7 7 6 6 6 6 6 6 6 6 6 6 6 6 5 5 5 5 5 4 4 4 3 3 3 2 2 2 1 1 0 -0 -1 -1 -2 -2 -2 -2 -3 -3 -3 -4 -4 -4 -3 -3 -3 -3 -2 -2 -2 -2 -2 -2 -1 -1 -1 -1 -2 -2 -2 -2 -2 -2 -2 -2 -2 -2
Height
755 754 754 754 753 753 753 752 752 752 752 752 752 752 752 752 751 751 751 751 751 751 751 751 752 752 752 753 753 754 754 755 756 757 758 759 760 761 762 763 763 764 765 766 768 769 770 770 770 770 770 771 771 772 773 774 775 777 778 780 781 782 784 785 786 788 789 791 792
752 751 751 751 750 750 750 749 749 749 749 749 749 749 749 749 749 748 749 749 749 749 749 750 750 750 750 750 751 751 752 752 753 754 755 756 757 758 759 760 760 761 762 763 764 765 766 767 767 767 768 768 769 770 770 771 772 774 775 777 778 779 781 782 783 785 787 788 790
749 749 749 748 748 747 747 746 746 745 746 746 746 746 747 746 746 746 746 746 747 747 747 747 748 748 748 748 749 749 749 750 751 752 752 753 754 755 756 757 757 758 759 760 761 762 763 763 764 764 765 765 765 766 767 768 769 771 772 774 775 776 778 779 780 782 784 786 787
747 747 746 746 745 745 744 744 744 744 744 744 745 745 745 744 744 744 744 745 745 745 745 745 745 746 746 746 746 746 747 747 748 749 750 750 751 752 753 754 755 755 755 756 757 758 760 760 761 761 762 762 762 763 764 765 766 768 769 771 772 773 774 775 777 779 781 783 784
746 745 745 744 744 743 743 743 743 743 743 743 743 743 743 742 743 743 743 743 743 743 743 743 744 744 744 744 744 744 745 745 746 746 747 748 749 750 751 752 752 752 753 753 754 755 757 758 759 759 759 759 760 760 760 762 763 765 766 768 769 770 771 773 775 776 778 780 781
745 744 744 743 743 743 742 742 742 742 742 742 742 741 741 741 741 741 741 740 740 741 741 742 742 742 742 742 742 742 743 743 744 744 745 745 746 747 748 749 750 750 750 751 752 753 754 755 756 756 756 756 756 757 757 759 760 762 764 765 766 767 768 770 771 773 775 776 778
744 743 742 742 742 741 741 740 740 741 741 740 740 739 739 739 739 739 739 739 739 739 740 740 740 740 740 740 740 740 741 741 741 742 742 743 744 745 745 746 747 748 748 749 750 750 752 753 754 754 754 754 754 754 755 755 756 758 760 762 763 765 765 766 768 770 772 773 775
742 741 741 740 740 739 739 739 739 739 738 738 737 737 736 737 737 737 737 737 737 737 737 738 738 738 738 738 738 738 739 739 739 740 740 740 741 742 743 744 745 745 746 746 747 748 749 750 751 751 751 751 751 752 752 753 754 755 757 759 760 762 763 764 765 767 768 770 772
740 739 739 738 738 737 737 736 736 736 736 735 734 734 734 735 735 735 735 735 735 735 735 735 735 736 736 736 736 736 736 737 737 737 738 738 739 740 740 741 742 743 744 744 745 746 747 748 748 749 749 749 750 750 751 751 752 753 755 757 758 759 760 761 762 764 765 767 769
738 737 737 736 736 735 735 735 734 734 733 732 732 732 732 732 732 732 732 732 733 733 733 733 733 734 734 734 734 734 735 735 735 735 735 736 736 737 738 738 739 740 741 741 742 743 744 745 745 746 746 747 748 748 749 750 750 751 752 754 755 757 757 758 760 761 763 764 766
735 735 735 734 733 733 733 732 732 731 731 730 730 730 730 730 730 730 730 730 730 730 730 730 731 731 731 732 732 732 732 733 733 733 733 733 734 734 735 735 736 736 737 738 739 740 741 742 742 743 744 745 745 746 747 747 748 749 750 752 753 754 755 755 757 758 760 761 763
734 733 732 732 731 731 730 730 729 729 728 728 727 727 727 727 727 728 728 728 728 728 728 728 729 729 729 729 729 730 730 730 730 730 730 730 731 731 732 732 733 734 734 735 736 737 738 738 739 740 741 742 743 743 744 745 745 746 748 749 751 752 752 753 754 755 757 759 761
732 731 730 730 730 729 729 728 727 727 726 726 725 725 725 725 725 725 726 726 725 725 725 726 726 726 726 726 727 727 727 728 728 728 728 728 729 729 730 730 730 731 732 732 733 734 735 735 735 736 738 739 740 740 741 742 743 744 745 747 748 749 750 750 751 753 755 757 759
730 730 729 728 728 727 726 726 725 725 724 724 724 723 723 723 723 723 723 723 723 723 723 723 723 724 724 724 724 724 725 725 725 726 726 726 726 727 728 728 728 729 730 730 730 731 731 732 732 733 734 735 736 737 738 739 740 741 742 744 745 746 747 748 749 750 752 755 756
729 728 727 726 726 725 725 724 723 723 722 721 721 721 721 720 720 720 721 720 720 721 721 721 721 721 721 722 722 722 722 723 723 724 724 724 725 725 725 726 726 727 727 728 728 728 729 729 729 730 731 732 733 734 735 736 737 738 739 740 742 743 745 746 747 748 750 752 754
727 726 725 724 724 723 722 721 721 720 719 719 719 719 718 718 718 718 718 718 718 719 719 719 719 719 719 720 720 720 720 720 721 721 722 722 722 723 723 724 724 724 725 725 725 726 726 726 727 727 728 729 730 731 732 733 734 735 736 737 739 741 742 743 745 746 748 749 751
725 724 723 722 721 720 720 719 718 717 716 715 715 715 715 715 715 715 716 716 716 716 716 716 716 717 717 717 718 718 718 718 719 719 719 720 720 720 721 721 722 722 722 723 723 723 724 724 725 725 726 727 728 729 730 731 732 733 734 735 737 739 740 741 742 743 745 747 748
723 722 721 720 720 719 717 716 715 715 713 712 712 712 712 713 713 713 713 713 714 714 714 714 714 715 715 715 715 716 716 716 716 716 717 717 717 718 718 719 719 720 720 721 721 721 722 722 723 724 725 725 726 727 728 729 730 731 732 733 735 736 737 739 740 741 742 744 745
722 720 720 719 718 716 715 715 714 712 711 710 710 709 709 709 710 710 710 710 711 711 711 712 712 712 712 712 713 713 713 714 714 714 714 715 715 715 716 716 717 718 718 718 719 719 720 721 722 723 723 724 725 725 726 727 728 729 730 730 732 733 735 736 737 738 740 741 742
720 719 718 717 716 715 714 713 712 710 710 708 707 706 706 706 706 707 707 707 708 708 709 709 709 709 709 710 710 710 710 711 711 711 711 712 712 712 713 713 714 715 715 716 716 717 718 719 720 721 721 722 723 723 724 725 725 726 727 728 730 731 732 734 735 736 737 738 740
718 717 716 715 714 713 712 711 710 709 707 706 705 704 704 703 703 703 703 704 704 705 705 705 705 705 706 706 706 706 707 707 708 708 708 709 709 709 710 710 711 712 712 713 713 714 715 716 717 718 719 720 720 721 721 722 723 724 725 726 727 729 730 731 732 734 735 735 737
716 715 714 713 711 710 709 708 707 706 705 704 703 703 702 701 701 700 700 700 701 701 701 701 702 702 702 703 703 703 704 704 705 705 705 706 706 706 707 708 709 709 709 710 710 711 712 714 715 716 717 718 718 719 719 720 721 722 723 724 725 727 728 729 730 731 732 733 734
715 713 712 710 709 708 706 705 704 703 702 702 701 701 700 700 699 699 699 699 699 699 699 699 699 699 700 700 700 701 701 701 702 702 702 703 703 704 705 705 705 706 706 706 707 708 709 711 712 713 714 715 716 717 718 719 719 720 721 722 723 724 725 727 728 729 730 730 731
713 711 710 708 707 705 704 702 701 700 700 699 699 698 698 698 697 697 697 697 696 696 696 696 697 697 697 698 698 698 699 699 699 699 700 700 700 701 701 702 702 702 703 703 704 705 706 708 709 710 712 713 714 715 716 717 718 719 719 720 721 722 723 725 725 726 727 728 729
711 710 708 706 705 703 701 700 699 698 697 696 696 696 695 695 695 695 695 695 694 694 694 694 695 695 695 695 696 696 696 696 696 696 697 697 698 698 699 699 699 699 700 700 701 702 704 705 706 708 709 711 712 713 714 715 716 717 718 718 719 720 721 722 723 724 725 725 726
709 708 706 704 702 700 699 697 696 695 694 694 693 693 693 693 692 692 692 692 692 692 692 692 692 693 693 693 693 693 693 693 693 693 694 694 695 695 696 696 696 696 696 697 698 700 701 703 704 705 707 708 710 711 712 714 714 715 716 716 717 718 719 719 720 721 722 723 724
707 705 704 702 700 699 697 695 695 693 692 691 691 690 690 690 690 690 689 689 689 690 690 690 690 690 691 691 690 690 690 690 690 691 691 691 692 692 693 693 693 693 694 695 696 698 700 701 702 704 705 705 707 708 710 711 712 713 714 714 715 715 716 716 717 718 719 720 721
705 703 701 700 698 697 695 694 693 692 691 690 689 688 688 687 687 687 687 687 687 687 687 688 688 688 688 688 688 687 687 688 688 688 688 689 689 689 690 690 690 690 691 693 695 696 698 699 700 701 702 703 704 705 706 708 709 710 711 712 712 712 713 714 714 715 716 717 719
703 701 700 698 696 695 694 693 692 690 689 689 688 687 686 686 685 685 685 685 685 685 685 685 685 685 685 685 685 685 685 685 685 686 686 686 686 686 687 687 688 688 689 691 692 694 695 696 698 699 700 700 701 702 704 705 706 707 708 708 709 709 710 711 711 713 714 715 716
701 700 698 696 695 693 692 691 690 689 688 687 686 685 685 684 683 683 683 683 682 682 682 682 683 682 682 682 682 682 683 683 683 684 684 684 684 684 684 685 685 685 686 688 690 691 692 694 695 696 697 698 698 699 700 701 702 703 704 705 705 706 707 708 709 710 711 712 713
700 698 697 695 693 692 690 689 688 687 686 685 685 684 683 683 682 681 681 681 680 680 680 680 680 680 679 679 680 680 680 680 680 681 681 681 681 681 682 682 682 683 684 685 687 688 690 691 692 693 694 695 695 695 696 697 698 700 700 701 702 703 704 705 705 706 708 709 710
698 697 695 694 692 690 689 687 686 685 685 684 683 682 681 681 680 680 680 679 679 679 679 678 678 677 677 677 677 677 677 677 678 678 678 678 679 679 679 680 680 680 681 683 684 685 687 688 689 690 691 692 692 692 692 693 695 696 697 698 699 700 700 701 702 703 704 705 707
697 695 694 692 690 688 687 686 685 684 683 682 681 680 679 679 678 678 678 677 677 677 676 676 675 675 674 674 674 674 675 675 675 675 675 676 676 677 677 677 678 678 679 680 682 683 684 685 685 686 688 689 689 690 690 690 692 693 694 695 696 697 698 699 699 700 701 702 703
695 694 692 690 689 687 685 684 683 682 681 680 679 678 677 677 676 676 675 675 675 675 674 673 673 672 672 672 672 672 672 672 672 673 673 674 674 675 675 675 675 675 676 678 679 680 681 682 683 684 685 686 686 687 687 688 689 690 691 692 693 694 695 696 696 697 698 699 700
694 692 690 689 687 685 684 683 682 680 680 678 677 676 675 675 674 673 673 673 672 672 671 670 670 670 670 670 669 669 669 670 670 670 670 671 672 672 672 672 672 673 674 675 676 677 678 679 680 681 682 683 684 684 685 685 685 686 688 690 691 692 692 693 694 695 696 697 698
692 691 689 687 685 684 683 681 680 679 678 676 675 674 673 673 672 671 671 670 670 669 669 668 668 668 667 667 667 667 667 667 667 668 668 669 669 669 669 670 670 671 672 673 674 675 676 676 677 678 679 680 681 681 682 682 682 683 685 686 688 689 690 691 692 692 693 694 695
691 690 688 686 684 683 681 680 679 677 676 675 674 673 672 671 670 669 669 668 668 667 666 665 665 665 665 664 664 664 664 665 665 665 666 666 666 667 667 667 667 668 669 670 672 672 673 674 675 676 677 678 678 678 679 679 680 680 682 683 685 686 687 689 689 690 690 691 692
690 688 686 685 683 681 680 678 677 675 674 673 672 671 670 669 668 667 667 666 665 665 664 663 663 662 662 662 662 662 662 662 663 663 663 663 664 664 665 665 665 665 666 668 669 670 670 671 672 673 674 675 675 675 676 676 676 677 678 680 681 683 685 686 687 687 688 688 689
688 686 685 683 682 680 678 677 675 674 672 671 670 669 668 667 666 665 665 664 663 662 661 661 660 660 660 660 660 660 660 660 660 660 660 661 661 661 662 662 662 663 664 665 666 667 668 669 670 670 671 671 672 672 673 673 674 674 675 676 678 680 682 683 684 685 685 685 686
686 685 683 682 680 679 677 675 674 672 671 670 668 667 666 665 664 663 663 662 661 660 659 659 658 658 658 658 658 657 657 657 657 658 658 658 659 659 660 660 660 660 661 662 664 665 665 666 667 667 668 669 669 670 670 670 671 671 672 673 675 676 678 680 681 681 682 683 684
685 683 682 680 679 677 675 674 672 670 669 668 667 665 664 663 662 661 660 660 659 658 657 657 656 656 656 656 656 655 655 655 655 655 655 656 657 657 658 658 658 658 659 660 661 662 663 664 664 665 665 666 666 667 667 668 668 668 669 670 671 672 674 676 677 679 679 680 680
Wind_Speed
27 26 26 26 25 25 25 25 26 25 25 25 24 24 24 23 24 24 23 23 23 23 23 23 23 23 24 25 27 29 31 32 33 33 34 34 33 33 33 33 33 33 33 32 31 30 30 30 30 28 27 27 28 27 27 27 27 27 26 26 25 24 24 24 24 24 23 22 21
27 27 27 26 26 26 25 25 26 25 25 25 25 25 24 24 24 24 23 23 23 23 22 22 22 23 23 24 26 28 30 32 32 33 33 34 34 34 34 33 33 34 34 34 32 31 31 31 30 29 27 27 27 27 27 28 28 27 27 27 25 24 24 24 24 24 23 23 22
26 27 27 27 27 26 26 26 26 26 25 25 25 25 25 25 24 23 23 23 23 23 22 22 22 22 23 24 26 27 29 31 32 32 33 33 34 33 33 33 34 34 35 35 35 34 33 32 31 30 28 27 28 28 27 27 28 28 27 27 26 24 24 24 24 23 23 22 22
25 26 27 27 28 28 27 26 26 25 24 24 24 24 24 24 24 23 23 22 22 22 22 22 21 21 22 24 25 26 28 29 31 32 32 33 33 33 33 34 33 34 35 36 37 36 34 33 32 30 29 28 29 29 28 27 27 28 27 27 26 25 24 24 23 23 23 22 23
25 26 27 28 28 28 28 27 26 24 23 23 22 22 23 23 23 23 22 22 22 22 22 22 21 21 21 23 24 26 27 28 29 31 32 32 33 33 34 34 33 34 35 37 38 37 36 34 31 30 30 29 29 30 30 28 28 28 27 27 26 25 25 24 23 23 23 22 22
24 25 26 27 27 27 27 27 26 24 23 22 22 22 22 22 22 21 22 22 22 22 22 22 22 21 21 22 23 25 26 27 28 30 31 32 32 33 33 34 34 34 35 36 38 38 37 35 32 30 30 30 30 31 31 29 28 28 27 26 26 25 25 24 23 22 22 22 22
24 24 25 26 26 27 27 27 25 24 23 23 23 23 23 22 22 22 22 22 22 21 21 22 22 22 22 22 23 24 25 26 28 29 30 31 31 32 33 34 34 35 35 36 37 37 37 36 32 30 30 30 30 30 31 30 29 28 27 26 26 26 25 25 24 23 23 23 23
24 24 25 25 26 26 26 26 25 24 24 23 23 24 24 24 23 23 22 22 22 21 21 21 22 23 23 23 23 24 25 26 27 28 29 30 30 31 32 33 34 35 35 35 36 37 37 37 34 31 30 29 29 29 30 30 30 29 28 27 26 26 26 27 26 25 24 24 25
24 25 25 25 25 26 26 27 26 25 25 25 25 25 24 24 24 23 23 22 22 21 21 21 22 22 23 24 24 24 25 26 27 28 28 29 30 31 32 33 34 35 36 36 36 37 37 36 34 32 31 29 28 28 29 31 31 30 29 28 26 26 26 27 27 26 25 25 26
25 26 25 25 25 25 26 26 26 26 26 26 26 26 25 24 24 24 23 23 22 21 21 21 21 22 23 24 25 25 25 25 27 28 29 30 31 32 33 33 34 35 36 36 36 36 36 36 34 33 31 30 29 28 29 31 32 32 30 28 28 27 27 27 27 27 26 26 26
25 25 24 24 24 24 24 24 25 25 25 26 26 25 25 24 24 24 23 22 22 22 22 22 22 22 23 24 25 25 25 25 26 28 29 30 31 32 34 35 35 36 37 36 36 36 36 35 35 34 32 30 29 29 30 31 32 33 32 30 29 28 28 27 27 27 27 26 27
23 23 23 23 23 23 23 23 23 23 24 24 24 24 24 24 24 23 23 23 23 23 23 22 22 23 23 24 24 25 25 26 26 28 29 31 32 33 34 35 36 37 38 38 37 36 35 35 35 34 33 32 31 30 31 32 33 33 33 31 30 29 29 28 28 28 27 26 27
21 22 22 22 22 22 22 22 23 23 23 23 23 23 23 23 23 23 23 23 24 24 23 23 23 24 24 24 24 25 25 26 27 28 29 30 32 33 34 35 36 37 38 38 38 36 36 36 37 36 35 33 32 32 32 33 34 34 34 32 31 30 30 29 29 28 27 26 26
20 21 21 21 21 21 21 22 22 22 22 22 22 21 21 21 22 22 22 23 24 24 23 23 23 23 24 24 25 26 26 27 27 28 29 29 30 32 33 34 36 37 38 38 38 38 37 37 38 38 37 35 34 33 33 34 35 35 35 34 32 32 31 30 30 29 27 27 26
20 20 20 20 20 20 20 21 21 21 21 21 21 21 20 20 20 21 21 22 23 23 23 23 22 23 23 24 25 26 26 27 27 28 28 29 29 31 32 33 35 36 38 38 39 39 39 39 39 39 38 37 36 35 34 35 35 36 36 36 35 33 32 31 30 29 28 28 27
19 19 19 19 19 20 20 20 20 21 21 21 21 20 20 19 19 20 20 21 22 22 22 22 22 22 23 23 24 25 25 26 27 27 28 29 29 30 31 33 34 36 37 38 39 39 40 40 40 39 39 39 38 36 35 35 36 36 36 36 35 34 33 32 31 31 30 29 28
19 19 19 19 19 20 20 21 21 20 20 21 21 20 19 19 19 19 20 20 20 21 21 22 22 22 22 22 23 23 24 25 26 27 28 29 30 31 32 33 34 36 37 38 39 39 40 40 39 39 39 39 38 37 36 35 36 36 36 35 35 35 34 33 32 32 32 31 29
18 18 19 19 19 20 21 22 22 22 22 21 21 20 20 19 19 19 19 20 20 20 21 21 22 22 22 22 22 23 23 25 26 27 28 29 30 32 33 34 34 36 37 38 39 39 39 39 38 37 37 37 37 36 36 36 35 35 35 35 35 35 35 34 33 33 32 31 31
18 18 18 19 20 21 22 23 23 23 23 22 21 21 20 20 20 20 20 20 20 20 21 21 22 23 23 24 24 24 24 25 26 27 28 29 30 32 33 34 35 36 37 38 39 39 39 38 37 36 36 35 36 36 35 35 35 35 35 35 35 35 35 35 34 33 32 32 31
19 18 18 19 20 21 22 22 23 22 22 21 21 21 21 21 21 21 21 21 21 21 21 22 23 23 24 24 25 26 26 26 26 27 28 29 30 31 32 34 34 35 37 38 39 38 38 37 37 36 35 35 35 35 35 35 34 34 34 34 35 35 35 35 34 33 32 32 31
19 18 18 19 20 20 21 21 21 21 21 21 21 21 21 22 22 22 23 23 22 22 22 23 23 24 24 25 26 27 27 26 27 28 28 29 30 31 32 33 34 35 36 37 38 38 38 37 36 36 35 35 35 35 35 34 34 34 34 34 34 35 35 34 33 33 32 32 32
19 19 18 19 19 20 20 20 20 20 20 20 21 21 21 22 22 23 23 23 23 23 23 23 24 24 25 25 25 26 27 26 27 28 28 29 30 31 32 32 33 34 36 37 38 38 38 37 36 36 35 35 35 35 36 34 34 33 34 34 34 34 34 34 33 32 32 32 32
20 19 19 19 19 20 20 19 19 19 19 20 20 21 21 22 22 22 22 23 23 23 23 23 24 24 25 25 25 26 26 26 26 27 28 28 29 30 31 31 32 33 35 36 37 37 37 37 36 36 36 35 35 35 35 34 34 33 33 33 33 33 33 32 32 32 32 31 31
20 20 20 19 19 19 19 19 19 19 20 20 20 21 21 21 22 22 22 22 23 23 23 23 23 23 24 24 25 25 26 26 27 27 27 28 28 29 31 32 32 33 34 36 36 37 37 36 35 35 35 35 35 34 34 34 33 33 34 33 33 32 32 31 31 31 31 31 30
21 21 21 20 20 20 20 20 20 20 20 21 21 21 21 21 21 21 22 22 23 23 24 24 23 23 23 23 24 25 26 27 27 28 28 28 28 29 30 31 32 33 34 35 35 35 35 34 34 34 34 34 33 33 33 34 33 34 34 33 32 31 30 30 30 30 30 30 30
22 22 21 21 21 21 21 20 20 21 21 21 21 21 21 21 21 21 22 22 23 23 23 23 23 22 22 22 23 24 26 27 28 29 29 29 29 29 30 30 31 32 33 34 33 33 33 33 32 32 33 33 32 32 31 32 33 34 34 33 32 31 30 29 29 30 30 30 30
23 23 22 22 21 21 21 21 21 21 21 21 21 21 21 21 21 21 22 22 22 22 22 23 22 22 21 22 23 24 26 26 27 28 29 30 30 30 30 30 30 31 32 32 31 31 32 32 32 32 32 32 32 32 31 31 33 33 33 33 32 31 31 30 29 29 29 28 29
24 24 23 22 21 21 21 21 21 21 21 21 21 21 21 21 21 21 21 21 21 21 21 22 22 21 21 21 23 25 26 26 26 27 28 30 30 31 30 30 30 30 31 30 30 30 31 32 33 33 32 32 32 33 32 32 32 32 32 32 32 31 31 31 29 28 28 27 27
25 24 23 22 22 22 21 20 20 21 21 21 21 21 21 21 21 21 21 20 20 20 20 20 20 20 21 21 22 24 25 26 26 26 27 27 29 30 30 30 30 30 29 29 29 30 31 32 33 34 34 33 32 31 31 31 32 31 31 32 32 31 31 30 29 28 27 26 27
25 23 22 22 22 22 21 21 20 20 20 20 20 20 20 20 20 20 20 20 20 20 20 20 20 20 21 22 22 22 23 24 25 26 26 27 27 28 29 29 29 29 29 28 29 30 31 32 33 34 35 34 33 32 32 32 32 31 31 31 32 32 31 30 30 29 27 27 26
25 23 22 22 22 22 22 21 21 20 20 20 20 20 20 20 20 20 20 20 20 20 21 21 21 22 22 22 22 21 22 23 24 24 26 27 27 27 28 28 29 30 29 29 29 30 31 32 33 34 35 36 35 33 33 32 33 32 31 30 31 31 31 30 30 29 28 27 26
24 23 23 23 23 23 22 21 21 20 19 20 20 20 20 20 20 20 20 19 19 20 20 21 22 22 22 22 22 22 22 23 23 24 25 26 26 27 27 28 29 29 29 29 29 30 31 32 33 34 36 37 36 35 34 34 34 33 31 31 31 32 32 31 31 30 30 29 28
25 24 23 23 23 23 22 21 20 20 19 19 20 20 21 21 20 20 19 19 19 19 20 21 22 22 22 22 22 22 23 23 23 24 24 25 26 26 26 27 27 28 28 28 29 30 31 32 33 34 35 37 37 36 35 33 32 32 31 30 31 32 32 32 31 30 30 30 29
25 23 22 22 22 22 22 21 20 19 19 19 20 20 20 21 21 20 20 20 20 20 20 21 22 22 22 23 23 23 23 23 23 24 24 24 25 25 26 26 26 27 27 28 29 30 31 32 33 34 35 36 37 36 34 33 32 31 31 30 30 31 32 32 32 31 31 31 30
24 22 22 23 23 22 22 22 21 20 20 20 20 20 20 20 21 21 20 20 20 20 21 21 22 22 22 22 23 23 23 23 23 24 24 24 24 24 25 26 26 26 26 27 29 30 31 32 33 34 34 35 35 35 34 32 32 32 32 31 30 30 31 31 32 32 32 31 31
22 22 23 24 24 24 23 23 22 22 22 21 21 21 20 20 20 20 20 20 20 20 21 21 21 21 21 22 22 23 23 23 24 24 24 24 24 24 25 26 26 26 26 27 28 29 31 32 33 33 34 34 34 34 33 32 31 31 32 32 31 30 30 31 31 32 32 31 31
23 23 24 25 25 25 24 24 23 23 23 22 22 21 21 21 20 20 20 19 19 20 20 21 21 21 21 22 22 22 23 23 23 24 24 24 24 24 25 25 26 26 26 27 28 29 30 31 32 33 33 33 33 32 31 30 29 30 31 32 31 31 30 29 30 31 32 32 31
24 24 24 24 25 25 25 24 24 24 24 23 23 22 21 21 20 20 19 19 19 20 20 21 21 21 22 22 22 23 23 23 23 23 24 24 24 25 25 25 25 26 26 27 28 29 30 31 32 32 33 33 32 31 29 28 28 28 29 30 30 31 30 28 28 29 31 32 32
24 24 24 24 25 25 25 25 25 24 24 24 23 23 22 21 21 20 19 19 19 19 20 21 21 21 21 21 21 22 22 23 23 23 24 24 25 25 25 25 25 25 26 26 27 29 30 31 31 32 33 32 32 31 29 28 27 27 28 28 29 30 30 28 28 27 29 31 32
24 24 24 24 24 25 25 25 25 25 24 24 23 23 22 21 21 20 20 19 19 20 20 21 21 21 21 20 20 21 21 22 23 23 24 24 24 25 25 25 25 25 25 26 27 28 30 31 31 32 32 32 32 31 30 29 28 27 26 27 27 28 28 28 28 27 27 28 30
24 24 24 24 24 24 25 25 25 25 24 24 23 23 22 22 21 21 20 19 19 19 20 20 20 20 20 20 20 20 21 21 21 22 23 23 24 24 24 25 25 25 25 26 26 28 29 30 31 32 32 32 32 30 29 29 29 27 26 25 25 26 27 27 27 27 26 26 27
Wind_Direction
235 235 235 235 236 236 237 238 238 238 237 237 237 237 237 236 237 236 234 232 231 232 232 231 229 228 226 224 221 219 218 218 217 217 217 217 216 216 216 216 215 214 213 212 210 210 209 207 207 207 206 205 205 204 204 203 202 201 201 202 204 205 204 204 205 205 206 207 208
235 235 235 235 236 236 237 238 238 237 237 236 236 236 236 237 237 237 236 234 233 233 233 233 231 229 227 225 223 221 219 218 217 217 217 217 217 217 216 216 215 214 213 212 210 209 209 207 206 206 206 205 204 204 204 204 202 201 201 202 203 203 203 204 205 206 206 207 209
236 236 235 235 235 235 236 237 237 237 236 236 236 236 237 237 237 238 237 236 235 234 234 233 232 230 228 226 224 222 220 219 218 217 217 217 217 216 216 216 215 214 213 212 211 210 209 207 206 206 206 206 205 204 203 203 202 201 202 202 202 202 202 204 205 205 206 208 210
238 237 236 236 235 235 236 237 238 238 237 237 238 238 238 238 238 239 239 238 237 235 234 233 232 231 229 227 224 222 221 220 218 217 217 218 217 216 216 215 215 214 213 212 211 210 209 208 207 207 207 207 205 204 203 202 201 201 202 202 202 201 201 202 202 203 205 207 210
242 240 240 239 239 239 239 240 240 240 240 239 239 239 239 239 239 240 240 239 237 236 235 234 233 231 229 227 225 222 221 220 218 218 218 218 218 217 216 216 215 214 213 212 211 210 209 208 207 208 208 208 206 205 204 201 200 200 201 201 201 201 200 200 200 202 204 206 208
247 245 244 244 243 243 243 243 243 243 243 242 241 241 240 240 240 239 239 239 239 238 237 235 234 232 230 228 225 223 221 220 218 218 218 218 218 217 216 215 215 214 213 212 211 210 209 207 208 208 209 209 208 206 204 201 199 198 199 200 201 200 199 199 199 200 201 204 207
252 250 249 248 247 246 245 245 245 244 244 244 243 242 241 241 240 240 239 240 240 240 238 236 235 233 231 228 226 224 221 220 219 218 218 218 217 217 216 215 215 214 213 212 211 210 209 208 208 209 210 209 208 206 204 201 198 197 198 199 200 200 199 199 199 199 200 203 204
256 255 253 252 250 249 247 246 246 245 244 244 243 243 243 243 242 241 242 241 241 240 239 237 236 234 232 230 227 225 222 221 220 219 218 218 217 217 216 215 215 214 214 213 211 210 209 208 209 210 210 209 208 206 203 200 198 197 197 198 200 200 199 199 199 199 200 201 203
260 258 257 255 253 251 250 249 247 245 244 244 244 244 244 244 243 243 243 243 242 241 239 238 236 235 233 231 229 226 224 222 221 220 219 218 217 217 216 215 214 214 214 213 212 210 209 208 210 211 211 210 208 206 203 200 199 198 198 199 200 200 200 200 199 199 200 201 202
263 261 260 258 256 254 252 251 249 247 245 246 246 246 246 245 245 244 244 244 243 242 240 238 237 236 234 232 230 228 226 224 222 221 219 218 217 216 216 215 214 213 213 212 211 210 209 209 210 212 212 211 209 206 204 201 200 199 200 200 200 199 199 199 199 199 200 201 204
266 264 262 260 258 256 254 252 250 248 246 246 247 247 247 247 246 245 245 244 244 243 241 239 238 236 235 233 231 229 227 226 224 222 221 219 218 217 216 215 214 213 213 212 211 210 209 209 211 212 212 211 209 207 205 202 201 200 201 201 201 199 198 198 198 198 200 203 206
269 267 264 262 260 258 255 252 250 249 247 247 247 247 247 247 247 246 246 245 244 244 242 240 238 237 236 234 232 230 228 226 225 224 222 221 219 218 217 216 215 214 213 212 210 209 209 209 210 211 211 211 210 208 206 203 202 201 201 202 201 200 198 197 197 198 200 204 208
273 269 266 264 261 258 255 252 251 250 249 248 248 248 248 247 247 247 246 245 245 244 243 241 238 237 236 235 232 230 228 227 226 224 223 222 221 220 218 217 216 215 214 212 211 209 209 210 210 210 210 210 209 208 207 204 203 202 202 201 201 200 199 197 197 198 201 205 209
276 272 268 265 262 259 255 253 251 251 250 250 249 249 249 249 248 247 246 245 245 244 243 242 239 237 236 234 233 231 229 227 226 225 224 224 222 221 220 218 217 216 214 213 212 211 211 211 211 211 210 210 209 209 208 206 204 203 202 202 201 200 200 199 198 199 202 206 210
279 274 269 266 262 258 255 253 252 251 251 251 250 249 249 249 248 246 245 245 245 244 243 241 239 238 236 234 233 231 229 228 227 226 225 225 224 222 221 220 218 217 216 214 213 213 213 212 212 212 211 211 210 209 208 207 206 205 204 203 202 202 201 200 200 201 204 208 211
281 276 271 267 262 258 255 252 251 250 250 250 250 249 248 248 248 247 245 244 244 243 242 241 239 238 237 235 233 231 230 229 228 227 226 226 225 223 222 221 219 218 217 216 215 215 215 215 214 213 213 212 211 210 208 207 206 205 205 204 204 203 203 202 202 204 207 210 212
284 278 273 268 263 258 254 251 249 248 248 248 249 248 248 247 248 247 245 243 243 242 241 240 239 238 236 234 232 230 230 229 228 228 227 227 226 225 223 222 221 220 219 217 216 216 216 216 215 215 214 213 212 210 209 208 207 206 205 205 204 205 204 205 206 208 210 212 213
287 282 276 270 264 259 256 253 250 248 248 247 247 247 247 247 246 246 245 243 242 241 241 240 239 238 236 234 232 230 229 229 229 229 228 228 228 227 225 224 223 222 221 219 218 218 217 217 216 215 215 214 213 211 210 209 207 206 206 205 205 206 207 208 209 211 213 213 214
291 285 279 272 267 263 259 256 253 251 250 249 248 247 246 245 244 244 243 243 241 240 240 240 239 237 236 234 232 231 230 230 230 230 230 230 229 228 227 226 225 224 223 221 220 220 219 218 217 216 215 214 213 212 210 209 208 207 206 205 205 206 208 210 212 214 215 215 216
292 287 281 276 271 266 263 260 257 255 253 251 249 247 245 244 243 242 241 241 240 239 238 238 237 236 235 234 233 232 231 231 231 231 231 230 230 229 228 227 226 225 224 223 222 221 220 219 217 216 215 214 213 211 210 209 208 206 206 205 206 208 210 213 215 216 217 217 218
294 289 284 279 274 269 266 263 260 258 256 253 251 248 246 245 243 241 240 240 239 237 236 235 234 233 233 232 232 232 232 232 232 232 232 231 230 229 229 228 227 226 225 224 223 222 220 219 218 217 215 214 213 211 210 208 207 206 205 206 207 209 212 214 216 217 218 218 219
297 292 287 282 276 272 268 265 262 260 258 255 253 250 248 246 244 242 242 241 238 236 234 233 232 231 231 231 231 231 232 232 232 232 232 231 231 230 229 228 227 226 225 224 223 222 221 219 218 217 216 214 213 212 210 208 206 206 206 207 208 210 213 216 217 218 219 219 220
300 296 290 284 279 275 271 268 265 262 259 257 255 252 250 248 246 245 243 241 238 236 234 233 233 232 232 232 231 231 231 231 231 231 231 231 230 230 229 228 227 226 225 224 223 221 220 219 218 217 216 214 213 211 210 208 207 206 207 207 209 211 214 216 218 219 220 220 221
302 298 293 288 283 279 276 272 269 265 261 258 255 253 251 249 248 246 244 241 239 237 235 234 234 233 233 233 232 232 231 231 231 230 230 230 230 229 228 227 226 226 225 225 223 221 219 218 217 216 215 214 213 211 210 208 208 208 208 209 210 212 214 216 218 219 220 220 221
304 301 297 292 287 284 280 276 271 267 263 260 257 254 252 250 248 246 244 242 240 238 237 236 235 234 234 233 232 232 231 231 231 230 230 229 229 228 228 227 226 226 226 225 223 221 219 217 216 215 214 213 212 211 210 210 210 210 210 210 211 212 214 216 217 219 220 220 221
307 305 301 296 292 287 282 277 272 268 265 262 258 255 252 249 248 246 244 243 241 239 238 236 235 234 234 233 233 232 231 231 231 230 229 229 228 227 227 226 226 226 226 225 223 220 218 216 215 214 213 212 211 210 210 211 211 211 212 212 212 212 213 214 216 218 219 220 221
311 309 306 302 296 289 283 278 274 270 266 262 258 255 253 250 248 245 244 243 242 240 238 237 235 234 234 234 233 232 232 231 230 230 229 229 228 227 227 227 227 227 226 225 222 220 218 217 215 214 213 211 210 210 210 211 212 213 213 213 213 213 214 214 215 216 218 219 220
313 312 309 305 299 291 285 280 275 270 266 263 259 257 254 251 248 245 243 242 241 239 238 236 235 234 234 234 234 234 232 231 231 230 230 230 229 228 228 227 227 228 227 225 222 221 220 220 218 216 213 211 210 210 211 212 212 213 213 214 214 214 215 215 216 216 217 218 219
314 313 310 306 300 294 288 282 276 271 268 265 262 259 256 252 249 246 244 242 239 237 236 235 234 234 234 234 234 234 233 232 231 231 230 230 229 229 228 228 228 228 227 224 223 222 221 220 219 217 215 212 210 210 211 212 213 213 213 214 214 215 215 216 216 216 216 217 218
315 312 309 305 300 296 291 285 280 276 272 269 265 261 258 254 250 247 244 242 239 237 236 236 234 233 233 234 234 234 233 233 232 231 230 230 229 229 229 228 228 228 227 225 223 222 222 221 220 218 216 213 211 210 211 212 213 214 214 215 215 215 215 215 216 216 216 217 217
313 311 307 304 300 296 292 288 284 280 275 271 267 263 259 255 252 249 246 244 242 241 240 238 236 235 235 235 234 233 233 233 231 230 229 229 229 229 229 229 228 228 227 225 224 223 223 222 221 220 218 217 213 211 211 211 213 214 214 214 215 214 214 215 216 216 216 215 215
311 309 306 303 299 296 294 291 287 283 278 273 268 264 260 257 255 253 251 248 246 244 242 239 237 236 236 236 235 234 233 232 231 230 229 229 229 229 229 229 229 228 227 224 224 224 223 223 222 221 220 218 216 213 212 212 213 214 215 215 215 214 215 215 216 216 216 215 214
311 308 305 302 299 297 295 292 288 284 279 274 269 265 262 260 258 256 254 251 249 246 243 240 239 238 237 236 234 233 233 232 232 231 230 229 229 229 229 229 229 228 226 224 224 224 224 223 223 222 221 220 219 217 214 211 212 213 214 215 216 216 216 216 216 216 216 215 214
311 308 305 302 300 298 296 294 291 287 282 277 272 267 264 261 259 257 254 252 249 247 246 244 242 240 239 237 235 234 234 233 233 231 230 230 229 229 229 229 229 228 226 225 224 224 224 224 224 223 223 222 222 220 216 211 210 211 213 215 216 216 216 216 216 217 217 216 216
311 308 306 305 304 302 300 298 295 291 286 281 276 271 267 264 260 258 256 254 252 250 248 247 245 244 242 241 238 236 235 234 233 232 230 229 228 228 228 229 229 228 227 225 225 225 225 224 224 224 224 224 224 223 220 213 210 210 212 214 215 216 217 217 218 218 218 218 218
310 309 308 307 306 305 303 300 298 294 290 285 280 276 272 268 264 261 259 257 254 251 249 248 246 245 243 241 239 237 235 234 233 232 231 229 228 227 228 229 230 229 227 226 225 225 225 225 224 225 225 225 225 225 223 216 211 209 211 212 214 216 217 218 219 219 219 219 218
310 309 308 307 306 305 304 302 299 296 292 288 285 281 277 273 269 265 262 259 255 252 250 248 246 244 241 240 239 237 236 235 233 232 231 229 228 227 228 230 230 229 227 226 226 226 226 225 225 225 225 225 225 226 224 218 212 209 209 211 214 216 217 218 219 219 220 219 218
310 309 308 306 305 304 304 302 300 297 294 291 288 285 281 278 274 270 266 260 255 253 252 250 247 245 242 241 240 239 238 236 233 231 230 229 228 227 228 230 231 230 228 226 226 227 227 226 226 226 225 224 225 225 224 220 214 209 208 209 212 215 217 217 218 219 220 220 218
309 308 307 305 304 304 303 302 300 298 296 293 291 287 284 281 278 274 270 264 258 254 253 252 250 248 246 243 242 240 239 237 234 231 230 229 229 228 229 229 231 230 229 226 227 227 227 227 227 227 226 225 225 225 224 222 217 211 208 208 210 213 215 216 217 219 219 219 219
308 307 306 305 304 303 302 301 299 298 296 294 292 289 286 283 280 276 273 268 262 258 255 254 253 252 249 246 243 241 240 237 235 232 230 230 230 230 229 230 231 231 229 227 227 227 228 228 228 228 227 226 225 224 225 224 221 215 210 207 207 209 212 215 216 217 218 218 218
306 306 305 304 303 302 301 300 299 298 296 294 292 290 288 285 282 278 275 270 265 260 258 256 255 253 250 247 244 242 240 238 235 233 231 231 231 230 230 230 231 231 230 229 228 228 228 228 229 229 228 226 225 224 224 223 222 219 213 208 205 206 208 211 213 215 216 217 217